Location: Brno
(49.2000°N, 16.6330°E)
Time: 21:53:56
(UTC+02:00)

Cosmos 332 Rocket - Visible Passes

Search period start: 30 September 2014 00:00
Search period end: 10 October 2014 00:00
Orbit: 684 x 707 km, 74.0° (Epoch: 29 September)

Date Brightness Start Highest point End Pass type
(mag) Time Alt. Az. Time Alt. Az. Time Alt. Az.
30 Sep 5.8 21:09:25 10° N 21:11:45 17° NNE 21:11:45 17° NNE visible
30 Sep 6.2 22:49:04 10° NNW 22:50:29 19° NNW 22:50:29 19° NNW visible
01 Oct 5.6 21:50:32 10° NNW 21:52:49 25° N 21:52:49 25° N visible
01 Oct 6.8 23:31:21 10° NW 23:31:33 11° NW 23:31:33 11° NW visible
02 Oct 5.6 20:52:26 10° N 20:55:10 19° NE 20:55:10 19° NE visible
02 Oct 6.1 22:32:13 10° NNW 22:33:54 22° NNW 22:33:54 22° NNW visible
03 Oct 6.0 19:55:54 10° NNE 19:56:34 10° NE 19:57:15 10° NE visible
03 Oct 5.3 21:33:37 10° NNW 21:36:17 29° N 21:36:17 29° N visible
03 Oct 6.8 23:14:36 10° NW 23:15:01 12° NW 23:15:01 12° NW visible
04 Oct 5.4 20:35:27 10° N 20:38:40 22° NE 20:38:40 22° NE visible
04 Oct 5.9 22:15:22 10° NNW 22:17:25 25° NW 22:17:25 25° NW visible
05 Oct 5.9 19:38:20 10° NNE 19:39:50 11° NE 19:41:05 10° NE visible
05 Oct 5.0 21:16:43 10° NNW 21:19:50 36° N 21:19:50 36° N visible
05 Oct 6.7 22:57:52 10° NW 22:58:35 13° NW 22:58:35 13° NW visible
06 Oct 5.1 20:18:29 10° N 20:22:17 24° NE 20:22:17 24° NE visible
06 Oct 5.6 21:58:32 10° NNW 22:01:02 29° NW 22:01:02 29° NW visible
07 Oct 5.8 19:21:04 10° NNE 19:23:04 12° NE 19:24:45 11° ENE visible
07 Oct 4.5 20:59:49 10° NNW 21:03:30 46° NNE 21:03:30 46° NNE visible
07 Oct 6.6 22:41:10 10° NW 22:42:15 14° WNW 22:42:15 14° WNW visible
08 Oct 4.9 20:01:31 10° N 20:05:40 27° NE 20:06:01 26° ENE visible
08 Oct 5.3 21:41:41 10° NNW 21:44:47 35° NW 21:44:47 35° NW visible
09 Oct 5.7 19:03:54 10° NNE 19:06:18 13° NE 19:08:35 10° ENE visible
09 Oct 3.9 20:42:54 10° NNW 20:47:20 62° NNE 20:47:20 62° NNE visible
09 Oct 6.5 22:24:29 10° NW 22:26:06 16° WNW 22:26:06 16° WNW visible
